DELTA 1 DEB, 42652

Orbit data source: Space-Track

DELTA 1 DEB, 42652 is space debris in SSO originally from a launch on Thu, 12 Jun 1975 UTC launched from the Air Force Western Test Range (AFWTR). Debris objects in space refer to the collection of defunct objects orbiting the Earth. Examples of debris include non-operational satellites, rocket bodies, and fragments generated from explosions, collisions, or faulty payload assembly.

Loading next visibility...
Identifier
42652, 1975-052MM
Orbit
SSO
Country
Flag of USUS
Related business
Manufacturer
Unknown
Mission
Spacecraft
Bus & Motor
Unknown
Mass
Unknown
Launch date (UTC)
1975-06-12 (51 years ago)
Launch vehicle
Unknown
Launch site
Air Force Western Test Range (AFWTR)
Object type
Payload
Rocket body
Debris
Shape & HBR
Unknown shape, 0.1 m
Radar Cross Section
Medium (>0.1 m² and <1 m²)

Expand to show TLE details & history
Last TLE update: 2 days ago

TLE from 2 days ago
0 DELTA 1 DEB
1 42652U 75052MM  26171.25724833  .00000132  00000-0  35010-3 0  9997
2 42652  99.7782 317.7038 0071540 324.8386 154.5947 13.33193058611664
Epoch: 2026-06-20T06:10Z
TLE epoch observation values (Epoch: 2026-06-20T06:10:26.255Z)
Latitude
58.88801°
Longitude
153.1255°
Altitude
1,193.242 km
Speed
7.239 km/s
True Right ascension
10h 16m 50s
True Declination
58° 44' 40"
Sunlit
Object was in daylight at epoch
Visualization orbit readout
Latitude
Unknown
Longitude
Unknown
Altitude
Unknown
Speed
Unknown
Apparent Right ascension
Unknown
Apparent Declination
Unknown
Sunlit
N/A
Visualization observer readout
Local Sidereal Time
09:15:07
Azimuth
Unknown
Elevation
Unknown
Doppler factor
Unknown
Orbital elements
Apogee altitude
1,185.799 km
Perigee altitude
1,078.343 km
Semi-major axis
7,510.208 km
Eccentricity
0.00715
Inclination
99.7782°
RAAN
317.7038°
Arg. of periapsis
324.8386°
True anomaly
154.94358°
Mean anomaly
154.5947°
Eccentric anomaly
154.76942°
Mean motion
3.33476 °/min
Orbital period
107.95 mins
BSTAR
0.0003501
Loading maneuver chart data...
Computing Atmospheric mass density...
Loading historical data...
Loading historical data...
Loading historical data...
Loading historical data...
Loading historical data...
Loading historical data...
Loading historical data...

Documentation

Showing up to 5 results
|